sat.trackr.live / text

‹ back to catalog

ARCTIC WEATHER SATELLITE

NORAD 60543 · 2024-149CD

PAYLOAD ACTIVE UNKNOWN

§ Identity

Operator
Country
NOR
Launch date
2024-08-16
Launch site
AFWTR
Launch vehicle
Mass (kg)
RCS (m²)

External: N2YO · Heavens-Above · Gunter

§ Orbital elements

Epoch: 2026-09-22T03:20:32.353440Z

Period
96.66 min
Inclination
97.6706°
Eccentricity
0.0003354
Mean motion
14.89801360 rev/d
Perigee alt
596.2 km
Apogee alt
600.9 km
Semi-major
6,976.7 km
B*
5.7053e-5
RAAN
332.7863°
Arg perigee
124.8129°
Mean anomaly
235.3405°
Rev number
11,373

§ Raw data

ARCTIC WEATHER SATELLITE1 60543U 24149CD  26265.13926335  .00000494  00000+0  57053-4 0  99912 60543  97.6706 332.7863 0003354 124.8129 235.3405 14.89801360113736

JSON: /api/v1/satellites/60543 · /tle

For live sub-satellite position, see the globe view (requires WebGL).

§ Visibility from observer

Set your observer location to see the next 7 days of passes ≥ 10°. The values pass through the URL so the page stays shareable.

No JS? Fill the form by hand. The geolocation button needs JavaScript.

§ Radio — SatNOGS DB

ModeDescriptionDownlinkUplink
FM Mode L - 3570kbps - Downlink 1.707 GHz
FM Mode S - Downlink 2.230 GHz

2 transmitters · refreshed weekly from db.satnogs.org